Location: Ch�ze
(42.9000°N, 0.0333°W)
Time: 23:34:50
(UTC+00:00)

ISS - Pass Details

Date: 24 January 2021
Orbit: 417 x 422 km, 51.6° (Epoch: 25 February)

Event Time Altitude Azimuth Distance (km) Brightness Sun altitude
Rises 17:37:02 0° 253° (WSW) 2,366 2.8 -6.6°
Reaches altitude 10° 17:39:11 10° 260° (W) 1,505 0.7 -7.0°
Maximum altitude 17:42:26 43° 334° (NNW) 605 -2.9 -7.6°
Drops below altitude 10° 17:45:42 10° 48° (NE) 1,514 -1.5 -8.1°
Enters shadow 17:45:51 - 48° (NE) 1,569 -1.4 -8.2°
